Tracking 25734 objects as of 27-May-2022
HD Live streaming from Space Station
objects crossing your sky now

SL-16 DEB

Track SL-16 DEB now!
10-day predictions


NORAD ID: 42235
Int'l Code: 1993-016CP
Perigee: 736.4 km
Apogee: 933.3 km
Inclination: 71.0 °
Period: 101.5 minutes
Semi major axis: 7205 km
RCS: Unknown
Launch date: March 26, 1993
Source: Commonwealth of Independent States (former USSR) (CIS)
Launch site: PLESETSK MISSILE AND SPACE COMPLEX (PKMTR)

Note: This is SATELLITE DEBRIS
aabbcc
Your satellite tracking list
Your tracking list is empty




NASA's NSSDC Master Catalog

Two Line Element Set (TLE):
1 42235U 93016CP  22128.00250524  .00005299  00000-0  23175-2 0  9993
2 42235  70.9985   0.9141 0136643  16.1251 344.4157 14.19311427903182
Source of the keplerian elements: AFSPC